Change the Weather History Date:

Friday, July 5, 2013

  Actual Average Record
Temperature  
Mean Temperature 77 °F 74 °F  
Max Temperature 84 °F 85 °F 99 °F (1988)
Min Temperature 69 °F 64 °F 48 °F (1968)
Cooling Degree Days 12 9  
Month to date cooling degree days 56 45  
Year to date cooling degree days 368 320  
Since 1 June cooling degree days 242 236  
Growing Degree Days 26 (Base 50)    
Moisture  
Dew Point 69 °F    
Average Humidity 82    
Maximum Humidity 100    
Minimum Humidity 63    
Precipitation  
Precipitation 0.01 in 0.13 in 1.66 in (2006)
Month to date precipitation 1.99 0.62  
Year to date precipitation 20.72 21.59  
Sea Level Pressure  
Sea Level Pressure 30.17 in    
Wind  
Wind Speed 4 mph (SSW)    
Max Wind Speed 18 mph    
Max Gust Speed 26 mph    
Visibility 10 miles    
Events Fog , Rain    
T = Trace of Precipitation, MM = Missing Value Source: NWS Daily Summary

Daily Weather History Graph

Daily Weather History Graph

Search for Another Location

Airport or City:

Trip Planner

Search our weather history database for the weather conditions in past years. The results will help you decide how hot, cold, wet, or windy it might be!

Date:

Astronomy

Jul. 05, 2013 Rise Set
Actual Time 6:04 AM EDT 8:55 PM EDT
Civil Twilight 5:32 AM EDT 9:27 PM EDT
Nautical Twilight 4:52 AM EDT 10:07 PM EDT
Astronomical Twilight 4:06 AM EDT 10:53 PM EDT
Moon 4:02 AM EDT (7/5) 6:49 PM EDT (7/5)
Length of Visible Light 15h 54m
Length of Day
14h 50m
Waning Crescent, 6% of the Moon is Illuminated
Jul 5
Waning Crescent
Jul 8
New
Jul 15
First Quarter
Jul 22
Full
Jul 29
Last Quarter

Hourly Weather History & Observations

Time (EDT) Temp. Heat Index Dew Point Humidity Pressure Visibility Wind Dir Wind Speed Gust Speed Precip Events Conditions
12:08 AM 69.8 °F - 69.8 °F 100% 30.20 in 7.0 mi Calm Calm - N/A   Mostly Cloudy
12:19 AM 69.8 °F - 69.8 °F 100% 30.19 in 8.0 mi Calm Calm - N/A   Scattered Clouds
12:53 AM 70.0 °F - 69.1 °F 97% 30.16 in 10.0 mi Calm Calm - N/A   Clear
1:53 AM 70.0 °F - 68.0 °F 93% 30.16 in 10.0 mi Calm Calm - N/A   Partly Cloudy
2:53 AM 70.0 °F - 68.0 °F 93% 30.16 in 10.0 mi Calm Calm - N/A   Mostly Cloudy
3:53 AM 69.1 °F - 68.0 °F 96% 30.16 in 10.0 mi South 4.6 mph - N/A   Mostly Cloudy
4:53 AM 69.1 °F - 68.0 °F 96% 30.15 in 10.0 mi Calm Calm - N/A   Scattered Clouds
5:53 AM 69.1 °F - 66.9 °F 93% 30.17 in 8.0 mi Calm Calm - 0.01 in Rain Light Rain
6:53 AM 69.1 °F - 68.0 °F 96% 30.17 in 8.0 mi Calm Calm - 0.00 in Fog Patches of Fog
7:53 AM 70.0 °F - 68.0 °F 93% 30.17 in 10.0 mi Calm Calm - 0.00 in Fog Patches of Fog
8:53 AM 71.1 °F - 69.1 °F 93% 30.19 in 10.0 mi Calm Calm - N/A Fog Patches of Fog
9:53 AM 73.0 °F - 69.1 °F 87% 30.20 in 10.0 mi ESE 3.5 mph - N/A   Mostly Cloudy
10:53 AM 77.0 °F - 70.0 °F 79% 30.19 in 10.0 mi South 5.8 mph - N/A   Scattered Clouds
11:53 AM 79.0 °F - 68.0 °F 69% 30.19 in 10.0 mi Variable 6.9 mph 18.4 mph N/A   Scattered Clouds
12:53 PM 79.0 °F - 66.9 °F 66% 30.20 in 10.0 mi SSW 12.7 mph 24.2 mph 0.00 in   Mostly Cloudy
1:53 PM 79.0 °F - 66.9 °F 66% 30.18 in 10.0 mi SW 8.1 mph - N/A   Scattered Clouds
2:53 PM 80.1 °F 82.7 °F 68.0 °F 67% 30.18 in 10.0 mi SSW 5.8 mph - N/A   Overcast
3:53 PM 82.0 °F 85.5 °F 69.1 °F 65% 30.16 in 10.0 mi South 6.9 mph - N/A   Scattered Clouds
4:53 PM 82.9 °F 85.8 °F 68.0 °F 60% 30.14 in 10.0 mi WSW 4.6 mph - N/A   Partly Cloudy
5:53 PM 82.9 °F 85.8 °F 68.0 °F 60% 30.13 in 10.0 mi SW 8.1 mph - N/A   Scattered Clouds
6:53 PM 79.0 °F - 69.1 °F 72% 30.13 in 10.0 mi SSW 5.8 mph - N/A   Clear
7:53 PM 78.1 °F - 69.1 °F 74% 30.14 in 10.0 mi SSW 4.6 mph - N/A   Clear
8:53 PM 75.9 °F - 70.0 °F 82% 30.16 in 9.0 mi West 8.1 mph - 0.00 in Rain Light Rain
9:53 PM 73.9 °F - 69.1 °F 85% 30.16 in 10.0 mi Calm Calm - 0.00 in   Clear
10:53 PM 72.0 °F - 69.1 °F 91% 30.18 in 10.0 mi Calm Calm - N/A   Clear
11:53 PM 71.1 °F - 69.1 °F 93% 30.18 in 10.0 mi Calm Calm - N/A   Partly Cloudy